Time,TemperatureF,DewpointF,PressureIn,WindDirection,WindDirectionDegrees,WindSpeedMPH,WindSpeedGustMPH,Humidity,HourlyPrecipIn,Conditions,Clouds,dailyrainin,SolarRadiationWatts/m^2,SoftwareType,DateUTC
2013-12-08 00:01:00,59.0,58.1,30.22,NE,47,9.0,13.0,97,0.00,,,0.00,0.0,meteohub,2013-12-08 05:01:00,
2013-12-08 00:02:00,59.0,58.1,30.22,East,82,10.0,13.0,97,0.00,,,0.00,0.0,meteohub,2013-12-08 05:02:00,
2013-12-08 00:04:00,59.0,58.1,30.22,NE,44,4.0,13.0,97,0.00,,,0.00,0.0,meteohub,2013-12-08 05:04:00,
2013-12-08 00:09:00,59.0,58.1,30.22,NNW,345,5.0,11.0,97,0.00,,,0.00,0.0,meteohub,2013-12-08 05:09:00,
2013-12-08 00:14:00,59.0,58.1,30.22,NE,42,6.0,12.0,97,0.00,,,0.00,0.0,meteohub,2013-12-08 05:14:00,
2013-12-08 00:19:00,58.8,57.9,30.22,NNE,30,9.0,12.0,97,0.00,,,0.00,0.0,meteohub,2013-12-08 05:19:00,
2013-12-08 00:24:00,58.6,57.7,30.22,ENE,61,4.0,14.0,97,0.00,,,0.00,0.0,meteohub,2013-12-08 05:24:00,
2013-12-08 00:29:00,58.5,57.6,30.22,NE,52,4.0,14.0,97,0.00,,,0.00,0.0,meteohub,2013-12-08 05:29:00,
2013-12-08 00:34:00,58.5,57.6,30.22,North,9,2.0,14.0,97,0.00,,,0.00,0.0,meteohub,2013-12-08 05:34:00,
2013-12-08 00:39:00,58.5,57.6,30.22,NNE,30,5.0,12.0,97,0.00,,,0.00,0.0,meteohub,2013-12-08 05:39:00,
2013-12-08 00:44:00,58.3,57.4,30.22,NNE,22,6.0,12.0,97,0.00,,,0.00,0.0,meteohub,2013-12-08 05:44:00,
2013-12-08 00:49:00,58.3,57.4,30.22,NNE,28,3.0,11.0,97,0.00,,,0.00,0.0,meteohub,2013-12-08 05:49:00,
2013-12-08 00:54:00,58.3,57.4,30.21,NNE,26,4.0,11.0,97,0.00,,,0.00,0.0,meteohub,2013-12-08 05:54:00,
2013-12-08 00:59:00,58.1,57.2,30.21,ENE,57,5.0,14.0,97,0.00,,,0.00,0.0,meteohub,2013-12-08 05:59:00,
2013-12-08 01:04:00,57.9,57.0,30.21,NNE,30,5.0,14.0,97,0.00,,,0.00,0.0,meteohub,2013-12-08 06:04:00,
2013-12-08 01:09:00,57.9,57.0,30.22,NE,50,6.0,14.0,97,0.00,,,0.00,0.0,meteohub,2013-12-08 06:09:00,
2013-12-08 01:14:00,57.7,56.8,30.21,NE,41,10.0,12.0,97,0.00,,,0.00,0.0,meteohub,2013-12-08 06:14:00,
2013-12-08 01:19:00,57.7,56.8,30.21,NE,55,3.0,11.0,97,0.00,,,0.00,0.0,meteohub,2013-12-08 06:19:00,
2013-12-08 01:24:00,57.6,56.7,30.21,East,83,5.0,14.0,97,0.00,,,0.00,0.0,meteohub,2013-12-08 06:24:00,
2013-12-08 01:29:00,57.6,56.7,30.21,NNE,32,9.0,14.0,97,0.00,,,0.00,0.0,meteohub,2013-12-08 06:29:00,
2013-12-08 01:34:00,57.6,56.7,30.21,NE,40,1.0,14.0,97,0.00,,,0.00,0.0,meteohub,2013-12-08 06:34:00,
2013-12-08 01:39:00,57.6,56.7,30.21,NE,47,2.0,11.0,97,0.00,,,0.00,0.0,meteohub,2013-12-08 06:39:00,
2013-12-08 01:44:00,57.4,56.5,30.21,NE,34,5.0,11.0,97,0.00,,,0.00,0.0,meteohub,2013-12-08 06:44:00,
2013-12-08 01:49:00,57.4,56.5,30.21,ENE,65,2.0,8.0,97,0.00,,,0.00,0.0,meteohub,2013-12-08 06:49:00,
2013-12-08 01:54:00,57.4,56.8,30.21,NNE,26,5.0,10.0,98,0.00,,,0.00,0.0,meteohub,2013-12-08 06:54:00,
2013-12-08 01:59:00,57.2,56.7,30.21,East,88,5.0,10.0,98,0.00,,,0.00,0.0,meteohub,2013-12-08 06:59:00,
2013-12-08 02:04:00,57.2,56.7,30.21,NE,49,3.0,10.0,98,0.00,,,0.00,0.0,meteohub,2013-12-08 07:04:00,
2013-12-08 02:09:00,57.2,56.7,30.20,NNE,32,8.0,10.0,98,0.00,,,0.00,0.0,meteohub,2013-12-08 07:09:00,
2013-12-08 02:14:00,57.2,56.7,30.20,NE,54,4.0,10.0,98,0.00,,,0.00,0.0,meteohub,2013-12-08 07:14:00,
2013-12-08 02:19:00,57.2,56.7,30.21,NE,49,2.0,9.0,98,0.00,,,0.00,0.0,meteohub,2013-12-08 07:19:00,
2013-12-08 02:24:00,57.2,56.7,30.21,NE,40,2.0,9.0,98,0.00,,,0.00,0.0,meteohub,2013-12-08 07:24:00,
2013-12-08 02:29:00,57.2,56.7,30.21,NE,44,4.0,8.0,98,0.00,,,0.00,0.0,meteohub,2013-12-08 07:29:00,
2013-12-08 02:34:00,57.2,56.7,30.21,NE,37,4.0,9.0,98,0.00,,,0.00,0.0,meteohub,2013-12-08 07:34:00,
2013-12-08 02:39:00,57.2,56.7,30.21,ENE,67,2.0,9.0,98,0.00,,,0.00,0.0,meteohub,2013-12-08 07:39:00,
2013-12-08 02:44:00,57.2,56.7,30.21,NE,43,5.0,9.0,98,0.00,,,0.00,0.0,meteohub,2013-12-08 07:44:00,
2013-12-08 02:49:00,57.2,56.7,30.20,NNE,30,6.0,9.0,98,0.00,,,0.00,0.0,meteohub,2013-12-08 07:49:00,
2013-12-08 02:54:00,57.2,56.7,30.21,NNE,32,4.0,8.0,98,0.00,,,0.00,0.0,meteohub,2013-12-08 07:54:00,
2013-12-08 02:59:00,57.0,56.5,30.20,ENE,63,4.0,11.0,98,0.00,,,0.00,0.0,meteohub,2013-12-08 07:59:00,
2013-12-08 03:04:00,57.0,56.5,30.21,NNE,13,9.0,12.0,98,0.00,,,0.00,0.0,meteohub,2013-12-08 08:04:00,
2013-12-08 03:09:00,57.0,56.5,30.21,NE,39,4.0,12.0,98,0.00,,,0.00,0.0,meteohub,2013-12-08 08:09:00,
2013-12-08 03:14:00,57.0,56.5,30.21,NE,44,5.0,12.0,98,0.00,,,0.00,0.0,meteohub,2013-12-08 08:14:00,
2013-12-08 03:19:00,56.8,55.9,30.21,ENE,63,9.0,10.0,97,0.00,,,0.00,0.0,meteohub,2013-12-08 08:19:00,
2013-12-08 03:24:00,56.8,56.3,30.21,NNE,31,3.0,9.0,98,0.00,,,0.00,0.0,meteohub,2013-12-08 08:24:00,
2013-12-08 03:29:00,56.8,56.3,30.21,ENE,57,0.0,13.0,98,0.00,,,0.00,0.0,meteohub,2013-12-08 08:29:00,
2013-12-08 03:34:00,56.8,56.3,30.21,NNE,15,2.0,13.0,98,0.00,,,0.00,0.0,meteohub,2013-12-08 08:34:00,
2013-12-08 03:39:00,56.8,56.3,30.21,NE,51,6.0,10.0,98,0.00,,,0.00,0.0,meteohub,2013-12-08 08:39:00,
2013-12-08 03:44:00,56.8,56.3,30.21,NE,55,1.0,10.0,98,0.00,,,0.00,0.0,meteohub,2013-12-08 08:44:00,
2013-12-08 03:49:00,56.8,56.3,30.21,NNE,32,4.0,9.0,98,0.00,,,0.00,0.0,meteohub,2013-12-08 08:49:00,
2013-12-08 03:54:00,56.7,56.1,30.21,NNW,344,3.0,9.0,98,0.00,,,0.00,0.0,meteohub,2013-12-08 08:54:00,
2013-12-08 03:59:00,56.7,56.1,30.21,NE,53,5.0,9.0,98,0.00,,,0.00,0.0,meteohub,2013-12-08 08:59:00,
2013-12-08 04:05:00,56.7,56.1,30.21,NE,41,0.0,9.0,98,0.00,,,0.00,0.0,meteohub,2013-12-08 09:05:00,
2013-12-08 04:10:00,56.5,55.9,30.21,NE,42,3.0,9.0,98,0.00,,,0.00,0.0,meteohub,2013-12-08 09:10:00,
2013-12-08 04:15:00,56.5,55.9,30.21,NE,36,5.0,10.0,98,0.00,,,0.00,0.0,meteohub,2013-12-08 09:15:00,
2013-12-08 04:20:00,56.5,55.9,30.21,NNE,13,8.0,11.0,98,0.00,,,0.00,0.0,meteohub,2013-12-08 09:20:00,
2013-12-08 04:25:00,56.5,55.6,30.21,NE,46,2.0,11.0,97,0.00,,,0.00,0.0,meteohub,2013-12-08 09:25:00,
2013-12-08 04:30:00,56.3,55.4,30.21,NE,38,6.0,11.0,97,0.00,,,0.00,0.0,meteohub,2013-12-08 09:30:00,
2013-12-08 04:35:00,56.3,55.4,30.21,NE,49,5.0,10.0,97,0.00,,,0.00,0.0,meteohub,2013-12-08 09:35:00,
2013-12-08 04:40:00,56.3,55.8,30.21,NE,51,5.0,10.0,98,0.00,,,0.00,0.0,meteohub,2013-12-08 09:40:00,
2013-12-08 04:45:00,56.1,55.6,30.21,ENE,58,7.0,12.0,98,0.00,,,0.00,0.0,meteohub,2013-12-08 09:45:00,
2013-12-08 04:50:00,56.1,55.6,30.21,NE,39,6.0,12.0,98,0.00,,,0.00,0.0,meteohub,2013-12-08 09:50:00,
2013-12-08 04:55:00,56.1,55.6,30.21,ENE,59,5.0,14.0,98,0.00,,,0.00,0.0,meteohub,2013-12-08 09:55:00,
2013-12-08 05:00:00,56.1,55.6,30.21,NNE,25,4.0,14.0,98,0.00,,,0.00,0.0,meteohub,2013-12-08 10:00:00,
2013-12-08 05:05:00,55.9,55.4,30.21,ENE,59,1.0,14.0,98,0.00,,,0.00,0.0,meteohub,2013-12-08 10:05:00,
2013-12-08 05:10:00,55.9,55.4,30.21,NE,48,7.0,11.0,98,0.00,,,0.00,0.0,meteohub,2013-12-08 10:10:00,
2013-12-08 05:15:00,55.9,55.4,30.21,NE,34,7.0,11.0,98,0.00,,,0.00,0.0,meteohub,2013-12-08 10:15:00,
2013-12-08 05:20:00,55.9,55.4,30.21,NE,45,3.0,11.0,98,0.00,,,0.00,0.0,meteohub,2013-12-08 10:20:00,
2013-12-08 05:25:00,55.9,55.4,30.21,NNE,14,9.0,11.0,98,0.00,,,0.00,0.0,meteohub,2013-12-08 10:25:00,
2013-12-08 05:30:00,55.9,55.4,30.22,NE,51,6.0,13.0,98,0.00,,,0.00,0.0,meteohub,2013-12-08 10:30:00,
2013-12-08 05:35:00,55.9,55.4,30.22,NE,39,5.0,13.0,98,0.00,,,0.00,0.0,meteohub,2013-12-08 10:35:00,
2013-12-08 05:40:00,55.9,55.4,30.22,ENE,67,4.0,13.0,98,0.00,,,0.00,0.0,meteohub,2013-12-08 10:40:00,
2013-12-08 05:45:00,55.9,55.4,30.22,ENE,65,5.0,11.0,98,0.00,,,0.00,0.0,meteohub,2013-12-08 10:45:00,
2013-12-08 05:50:00,55.8,55.2,30.22,NNE,33,3.0,9.0,98,0.00,,,0.00,0.0,meteohub,2013-12-08 10:50:00,
2013-12-08 05:55:00,55.8,55.2,30.22,NNE,29,5.0,11.0,98,0.00,,,0.00,0.0,meteohub,2013-12-08 10:55:00,
2013-12-08 06:00:00,55.6,55.0,30.22,ENE,61,3.0,11.0,98,0.00,,,0.00,0.0,meteohub,2013-12-08 11:00:00,
2013-12-08 06:05:00,55.6,55.0,30.22,NE,34,10.0,10.0,98,0.00,,,0.00,0.0,meteohub,2013-12-08 11:05:00,
2013-12-08 06:10:00,55.6,55.0,30.23,ENE,61,4.0,11.0,98,0.00,,,0.00,0.0,meteohub,2013-12-08 11:10:00,
2013-12-08 06:15:00,55.6,55.0,30.23,North,5,5.0,11.0,98,0.00,,,0.00,0.0,meteohub,2013-12-08 11:15:00,
2013-12-08 06:20:00,55.4,54.9,30.23,NE,56,8.0,13.0,98,0.00,,,0.00,0.0,meteohub,2013-12-08 11:20:00,
2013-12-08 06:25:00,55.6,55.0,30.23,NNE,17,5.0,13.0,98,0.00,,,0.00,0.0,meteohub,2013-12-08 11:25:00,
2013-12-08 06:30:00,55.4,54.9,30.24,NE,51,4.0,11.0,98,0.00,,,0.00,0.0,meteohub,2013-12-08 11:30:00,
2013-12-08 06:35:00,55.4,54.9,30.23,NNE,26,4.0,10.0,98,0.00,,,0.00,0.0,meteohub,2013-12-08 11:35:00,
2013-12-08 06:40:00,55.2,54.7,30.24,ENE,59,7.0,12.0,98,0.00,,,0.00,0.0,meteohub,2013-12-08 11:40:00,
2013-12-08 06:45:00,55.2,54.7,30.24,NE,38,5.0,13.0,98,0.00,,,0.00,0.0,meteohub,2013-12-08 11:45:00,
2013-12-08 06:50:00,55.2,54.7,30.24,ENE,59,3.0,13.0,98,0.00,,,0.00,0.0,meteohub,2013-12-08 11:50:00,
2013-12-08 06:55:00,55.2,54.7,30.24,NE,48,4.0,9.0,98,0.00,,,0.00,0.0,meteohub,2013-12-08 11:55:00,
2013-12-08 07:00:00,55.2,54.7,30.24,NE,34,0.0,8.0,98,0.00,,,0.00,0.0,meteohub,2013-12-08 12:00:00,
2013-12-08 07:05:00,55.2,54.7,30.24,ENE,75,7.0,7.0,98,0.00,,,0.00,0.0,meteohub,2013-12-08 12:05:00,
2013-12-08 07:10:00,55.2,54.7,30.24,NNE,13,3.0,8.0,98,0.00,,,0.00,0.0,meteohub,2013-12-08 12:10:00,
2013-12-08 07:15:00,55.2,54.7,30.24,NE,46,0.0,8.0,98,0.00,,,0.00,0.0,meteohub,2013-12-08 12:15:00,
2013-12-08 07:20:00,55.2,54.7,30.25,NE,51,4.0,8.0,98,0.00,,,0.00,0.0,meteohub,2013-12-08 12:20:00,
2013-12-08 07:25:00,55.2,54.7,30.25,North,10,5.0,9.0,98,0.00,,,0.00,0.0,meteohub,2013-12-08 12:25:00,
2013-12-08 07:30:00,55.2,54.7,30.25,NNW,346,5.0,9.0,98,0.00,,,0.00,0.0,meteohub,2013-12-08 12:30:00,
2013-12-08 07:35:00,55.0,54.5,30.25,NNE,25,9.0,9.0,98,0.00,,,0.00,5.0,meteohub,2013-12-08 12:35:00,
2013-12-08 07:40:00,55.0,54.5,30.25,NE,49,2.0,9.0,98,0.00,,,0.00,7.0,meteohub,2013-12-08 12:40:00,
2013-12-08 07:45:00,55.0,54.5,30.25,NE,35,0.0,9.0,98,0.00,,,0.00,9.0,meteohub,2013-12-08 12:45:00,
2013-12-08 07:50:00,55.2,54.7,30.25,NNE,19,4.0,9.0,98,0.00,,,0.00,11.0,meteohub,2013-12-08 12:50:00,
2013-12-08 07:55:00,55.0,54.5,30.25,NNE,30,5.0,7.0,98,0.00,,,0.00,14.0,meteohub,2013-12-08 12:55:00,
2013-12-08 08:00:00,55.0,54.5,30.25,NE,44,5.0,8.0,98,0.00,,,0.00,18.0,meteohub,2013-12-08 13:00:00,
2013-12-08 08:06:00,55.0,54.5,30.25,NE,38,2.0,8.0,98,0.00,,,0.00,26.0,meteohub,2013-12-08 13:06:00,
2013-12-08 08:11:00,55.2,54.7,30.25,NE,38,3.0,8.0,98,0.00,,,0.00,32.0,meteohub,2013-12-08 13:11:00,
2013-12-08 08:16:00,55.0,54.5,30.25,East,80,0.0,6.0,98,0.00,,,0.00,35.0,meteohub,2013-12-08 13:16:00,
2013-12-08 08:21:00,55.0,54.5,30.25,NE,51,3.0,9.0,98,0.00,,,0.00,49.0,meteohub,2013-12-08 13:21:00,
2013-12-08 08:26:00,55.2,54.7,30.25,ENE,63,4.0,9.0,98,0.00,,,0.00,47.0,meteohub,2013-12-08 13:26:00,
2013-12-08 08:31:00,55.0,54.5,30.25,NE,44,5.0,7.0,98,0.00,,,0.00,42.0,meteohub,2013-12-08 13:31:00,
2013-12-08 08:36:00,55.2,54.7,30.25,NNE,30,1.0,7.0,98,0.00,,,0.00,60.0,meteohub,2013-12-08 13:36:00,
2013-12-08 08:41:00,55.2,54.7,30.25,NE,49,2.0,7.0,98,0.00,,,0.00,63.0,meteohub,2013-12-08 13:41:00,
2013-12-08 08:46:00,55.2,54.7,30.25,NE,52,3.0,7.0,98,0.00,,,0.00,60.0,meteohub,2013-12-08 13:46:00,
2013-12-08 08:51:00,55.2,54.7,30.25,North,350,7.0,9.0,98,0.00,,,0.00,58.0,meteohub,2013-12-08 13:51:00,
2013-12-08 08:56:00,55.4,54.9,30.25,East,83,0.0,9.0,98,0.00,,,0.00,47.0,meteohub,2013-12-08 13:56:00,
2013-12-08 09:01:00,55.4,54.9,30.26,NNE,22,3.0,7.0,98,0.00,,,0.00,39.0,meteohub,2013-12-08 14:01:00,
2013-12-08 09:06:00,55.4,54.9,30.25,NNE,32,2.0,9.0,98,0.00,,,0.00,62.0,meteohub,2013-12-08 14:06:00,
2013-12-08 09:11:00,55.4,54.9,30.26,NE,52,4.0,9.0,98,0.00,,,0.00,56.0,meteohub,2013-12-08 14:11:00,
2013-12-08 09:16:00,55.6,55.0,30.26,NE,49,1.0,10.0,98,0.00,,,0.00,69.0,meteohub,2013-12-08 14:16:00,
2013-12-08 09:21:00,55.6,55.0,30.26,ENE,62,4.0,10.0,98,0.00,,,0.00,74.0,meteohub,2013-12-08 14:21:00,
2013-12-08 09:26:00,55.8,55.2,30.27,NE,55,1.0,7.0,98,0.00,,,0.00,77.0,meteohub,2013-12-08 14:26:00,
2013-12-08 09:31:00,55.8,55.2,30.27,East,91,3.0,8.0,98,0.00,,,0.00,81.0,meteohub,2013-12-08 14:31:00,
2013-12-08 09:36:00,55.8,55.2,30.27,NE,36,4.0,11.0,98,0.00,,,0.00,95.0,meteohub,2013-12-08 14:36:00,
2013-12-08 09:41:00,55.8,55.2,30.26,North,9,4.0,11.0,98,0.00,,,0.00,58.0,meteohub,2013-12-08 14:41:00,
2013-12-08 09:46:00,55.9,55.4,30.26,NNE,19,1.0,11.0,98,0.00,,,0.00,95.0,meteohub,2013-12-08 14:46:00,
2013-12-08 09:51:00,55.9,55.4,30.26,NE,53,0.0,11.0,98,0.00,,,0.00,91.0,meteohub,2013-12-08 14:51:00,
2013-12-08 09:56:00,56.1,55.6,30.26,ENE,67,3.0,7.0,98,0.00,,,0.00,102.0,meteohub,2013-12-08 14:56:00,
2013-12-08 10:01:00,56.1,55.6,30.26,NE,51,0.0,7.0,98,0.00,,,0.00,118.0,meteohub,2013-12-08 15:01:00,
2013-12-08 10:06:00,56.1,55.6,30.27,NE,43,0.0,5.0,98,0.00,,,0.00,104.0,meteohub,2013-12-08 15:06:00,
2013-12-08 10:11:00,56.3,55.8,30.27,NNE,33,6.0,6.0,98,0.00,,,0.00,114.0,meteohub,2013-12-08 15:11:00,
2013-12-08 10:16:00,56.3,55.8,30.27,NNE,19,5.0,8.0,98,0.00,,,0.00,135.0,meteohub,2013-12-08 15:16:00,
2013-12-08 10:21:00,56.3,55.8,30.27,NE,34,2.0,8.0,98,0.00,,,0.00,120.0,meteohub,2013-12-08 15:21:00,
2013-12-08 10:26:00,56.5,55.9,30.27,NNE,18,4.0,8.0,98,0.00,,,0.00,123.0,meteohub,2013-12-08 15:26:00,
2013-12-08 10:31:00,56.5,55.9,30.27,NNE,27,5.0,10.0,98,0.00,,,0.00,107.0,meteohub,2013-12-08 15:31:00,
2013-12-08 10:36:00,56.5,55.9,30.26,ENE,76,5.0,10.0,98,0.00,,,0.00,114.0,meteohub,2013-12-08 15:36:00,
2013-12-08 10:41:00,56.5,55.9,30.27,ENE,76,0.0,10.0,98,0.00,,,0.00,100.0,meteohub,2013-12-08 15:41:00,
2013-12-08 10:46:00,56.5,55.9,30.27,NNE,14,2.0,7.0,98,0.00,,,0.00,111.0,meteohub,2013-12-08 15:46:00,
2013-12-08 10:51:00,56.5,55.9,30.27,NNE,33,7.0,8.0,98,0.00,,,0.00,111.0,meteohub,2013-12-08 15:51:00,
2013-12-08 10:56:00,56.3,55.8,30.26,NE,53,3.0,8.0,98,0.00,,,0.00,107.0,meteohub,2013-12-08 15:56:00,
2013-12-08 11:01:00,56.5,55.9,30.26,NE,44,4.0,8.0,98,0.00,,,0.00,109.0,meteohub,2013-12-08 16:01:00,
2013-12-08 11:06:00,56.5,55.9,30.26,NNE,31,0.0,8.0,98,0.00,,,0.00,109.0,meteohub,2013-12-08 16:06:00,
2013-12-08 11:11:00,56.5,55.9,30.26,NE,36,1.0,7.0,98,0.00,,,0.00,102.0,meteohub,2013-12-08 16:11:00,
2013-12-08 11:16:00,56.5,55.9,30.25,NE,46,0.0,7.0,98,0.00,,,0.00,102.0,meteohub,2013-12-08 16:16:00,
2013-12-08 11:21:00,56.7,56.1,30.25,NNE,14,3.0,5.0,98,0.00,,,0.00,116.0,meteohub,2013-12-08 16:21:00,
2013-12-08 11:26:00,56.7,56.1,30.25,NNE,29,4.0,7.0,98,0.00,,,0.00,90.0,meteohub,2013-12-08 16:26:00,
2013-12-08 11:31:00,56.5,55.9,30.25,ENE,74,7.0,7.0,98,0.00,,,0.00,104.0,meteohub,2013-12-08 16:31:00,
2013-12-08 11:36:00,56.5,55.9,30.25,NNE,33,5.0,8.0,98,0.00,,,0.00,111.0,meteohub,2013-12-08 16:36:00,
2013-12-08 11:41:00,56.5,55.9,30.25,NE,36,3.0,9.0,98,0.00,,,0.00,121.0,meteohub,2013-12-08 16:41:00,
2013-12-08 11:46:00,56.5,55.9,30.25,ENE,63,5.0,10.0,98,0.00,,,0.00,121.0,meteohub,2013-12-08 16:46:00,
2013-12-08 11:51:00,56.5,55.9,30.25,NE,45,6.0,10.0,98,0.00,,,0.00,114.0,meteohub,2013-12-08 16:51:00,
2013-12-08 11:56:00,56.5,55.9,30.24,NNE,33,1.0,10.0,98,0.00,,,0.00,113.0,meteohub,2013-12-08 16:56:00,
2013-12-08 12:01:00,56.5,55.9,30.24,ENE,62,5.0,9.0,98,0.00,,,0.00,104.0,meteohub,2013-12-08 17:01:00,
2013-12-08 12:06:00,56.5,55.6,30.24,ENE,57,3.0,11.0,97,0.00,,,0.00,105.0,meteohub,2013-12-08 17:06:00,
2013-12-08 12:11:00,56.5,55.6,30.24,NNE,23,5.0,11.0,97,0.00,,,0.00,97.0,meteohub,2013-12-08 17:11:00,
2013-12-08 12:16:00,56.5,55.9,30.24,NE,48,0.0,8.0,98,0.00,,,0.00,100.0,meteohub,2013-12-08 17:16:00,
2013-12-08 12:21:00,56.7,56.1,30.23,NE,44,0.0,7.0,98,0.00,,,0.00,116.0,meteohub,2013-12-08 17:21:00,
2013-12-08 12:26:00,56.7,56.1,30.23,NE,38,2.0,7.0,98,0.00,,,0.00,137.0,meteohub,2013-12-08 17:26:00,
2013-12-08 12:31:00,56.3,55.4,30.22,ENE,70,5.0,5.0,97,0.00,,,0.00,97.0,meteohub,2013-12-08 17:31:00,
2013-12-08 12:36:00,56.1,55.2,30.22,NNE,30,1.0,10.0,97,0.00,,,0.00,113.0,meteohub,2013-12-08 17:36:00,
2013-12-08 12:41:00,56.3,55.4,30.22,ENE,69,8.0,10.0,97,0.00,,,0.00,153.0,meteohub,2013-12-08 17:41:00,
2013-12-08 12:46:00,56.1,55.2,30.22,NNE,20,7.0,10.0,97,0.00,,,0.00,107.0,meteohub,2013-12-08 17:46:00,
2013-12-08 12:51:00,56.3,55.4,30.21,NE,53,0.0,10.0,97,0.00,,,0.00,142.0,meteohub,2013-12-08 17:51:00,
2013-12-08 12:56:00,56.1,55.2,30.21,NE,49,1.0,10.0,97,0.00,,,0.00,151.0,meteohub,2013-12-08 17:56:00,
2013-12-08 13:02:00,56.5,55.6,30.21,NE,44,3.0,9.0,97,0.00,,,0.00,144.0,meteohub,2013-12-08 18:02:00,
2013-12-08 13:07:00,56.1,55.2,30.21,NE,51,2.0,12.0,97,0.00,,,0.00,109.0,meteohub,2013-12-08 18:07:00,
2013-12-08 13:12:00,56.1,55.2,30.20,East,86,5.0,12.0,97,0.00,,,0.00,100.0,meteohub,2013-12-08 18:12:00,
2013-12-08 13:17:00,56.3,55.4,30.20,NE,44,4.0,12.0,97,0.00,,,0.00,125.0,meteohub,2013-12-08 18:17:00,
2013-12-08 13:22:00,56.3,55.4,30.20,NNE,22,1.0,8.0,97,0.00,,,0.00,176.0,meteohub,2013-12-08 18:22:00,
2013-12-08 13:27:00,56.5,55.9,30.19,NE,38,5.0,6.0,98,0.00,,,0.00,128.0,meteohub,2013-12-08 18:27:00,
2013-12-08 13:32:00,56.5,55.9,30.19,NNE,22,6.0,8.0,98,0.00,,,0.00,132.0,meteohub,2013-12-08 18:32:00,
2013-12-08 13:37:00,56.5,55.9,30.19,NNE,33,6.0,8.0,98,0.00,,,0.00,121.0,meteohub,2013-12-08 18:37:00,
2013-12-08 13:42:00,56.3,55.4,30.18,ENE,72,7.0,9.0,97,0.00,,,0.00,130.0,meteohub,2013-12-08 18:42:00,
2013-12-08 13:47:00,56.3,55.8,30.18,ENE,59,7.0,9.0,98,0.00,,,0.00,104.0,meteohub,2013-12-08 18:47:00,
2013-12-08 13:52:00,56.5,55.6,30.18,NE,55,5.0,9.0,97,0.00,,,0.00,100.0,meteohub,2013-12-08 18:52:00,
2013-12-08 13:57:00,56.5,55.6,30.18,NNE,24,5.0,9.0,97,0.00,,,0.00,118.0,meteohub,2013-12-08 18:57:00,
2013-12-08 14:02:00,56.5,55.6,30.18,ENE,78,0.0,10.0,97,0.00,,,0.00,114.0,meteohub,2013-12-08 19:02:00,
2013-12-08 14:06:00,56.8,55.9,30.18,ENE,78,0.0,10.0,97,0.00,,,0.00,90.0,meteohub,2013-12-08 19:06:00,
2013-12-08 14:12:00,56.7,55.8,30.17,ENE,69,7.0,8.0,97,0.00,,,0.00,114.0,meteohub,2013-12-08 19:12:00,
2013-12-08 14:17:00,56.7,55.8,30.17,NE,56,4.0,8.0,97,0.00,,,0.00,127.0,meteohub,2013-12-08 19:17:00,
2013-12-08 14:22:00,56.7,55.8,30.17,NE,56,6.0,8.0,97,0.00,,,0.00,123.0,meteohub,2013-12-08 19:22:00,
2013-12-08 14:27:00,56.8,55.9,30.17,NE,48,3.0,8.0,97,0.00,,,0.00,134.0,meteohub,2013-12-08 19:27:00,
2013-12-08 14:31:00,57.0,56.1,30.17,NE,45,3.0,7.0,97,0.00,,,0.00,135.0,meteohub,2013-12-08 19:31:00,
2013-12-08 14:36:00,57.2,56.3,30.17,NE,44,2.0,7.0,97,0.00,,,0.00,176.0,meteohub,2013-12-08 19:36:00,
2013-12-08 14:41:00,57.2,56.3,30.16,NE,42,4.0,7.0,97,0.00,,,0.00,123.0,meteohub,2013-12-08 19:41:00,
2013-12-08 14:47:00,57.4,56.5,30.16,NNE,22,0.0,7.0,97,0.00,,,0.00,139.0,meteohub,2013-12-08 19:47:00,
2013-12-08 14:52:00,57.6,56.7,30.17,NE,34,3.0,7.0,97,0.00,,,0.00,111.0,meteohub,2013-12-08 19:52:00,
2013-12-08 14:56:00,57.6,56.7,30.17,East,98,1.0,8.0,97,0.00,,,0.00,134.0,meteohub,2013-12-08 19:56:00,
2013-12-08 15:01:00,57.6,56.7,30.16,East,80,9.0,9.0,97,0.00,,,0.00,171.0,meteohub,2013-12-08 20:01:00,
2013-12-08 15:06:00,57.0,55.9,30.16,NNE,19,4.0,9.0,96,0.00,,,0.00,123.0,meteohub,2013-12-08 20:06:00,
2013-12-08 15:11:00,57.0,55.9,30.16,ENE,74,0.0,12.0,96,0.00,,,0.00,107.0,meteohub,2013-12-08 20:11:00,
2013-12-08 15:16:00,57.0,55.9,30.17,North,5,2.0,12.0,96,0.00,,,0.00,109.0,meteohub,2013-12-08 20:16:00,
2013-12-08 15:21:00,56.8,55.8,30.17,NNE,24,8.0,10.0,96,0.00,,,0.00,98.0,meteohub,2013-12-08 20:21:00,
2013-12-08 15:26:00,56.8,55.8,30.17,NE,38,1.0,10.0,96,0.00,,,0.00,67.0,meteohub,2013-12-08 20:26:00,
2013-12-08 15:31:00,56.8,55.8,30.17,East,84,3.0,10.0,96,0.00,,,0.00,70.0,meteohub,2013-12-08 20:31:00,
2013-12-08 15:36:00,56.8,55.8,30.17,NE,41,4.0,9.0,96,0.00,,,0.00,95.0,meteohub,2013-12-08 20:36:00,
2013-12-08 15:42:00,57.0,55.9,30.17,NE,54,2.0,9.0,96,0.00,,,0.00,72.0,meteohub,2013-12-08 20:42:00,
2013-12-08 15:47:00,56.8,55.8,30.17,ENE,67,2.0,9.0,96,0.00,,,0.00,70.0,meteohub,2013-12-08 20:47:00,
2013-12-08 15:52:00,57.0,55.9,30.17,NNW,336,3.0,12.0,96,0.00,,,0.00,121.0,meteohub,2013-12-08 20:52:00,
2013-12-08 15:57:00,57.0,55.9,30.17,ENE,65,8.0,12.0,96,0.00,,,0.00,69.0,meteohub,2013-12-08 20:57:00,
2013-12-08 16:02:00,57.2,56.1,30.17,NNE,21,4.0,9.0,96,0.00,,,0.00,60.0,meteohub,2013-12-08 21:02:00,
2013-12-08 16:07:00,57.2,56.1,30.17,ESE,107,3.0,9.0,96,0.00,,,0.00,65.0,meteohub,2013-12-08 21:07:00,
2013-12-08 16:12:00,57.2,56.1,30.17,NE,48,5.0,9.0,96,0.00,,,0.00,56.0,meteohub,2013-12-08 21:12:00,
2013-12-08 16:17:00,57.2,56.1,30.17,NNE,26,4.0,8.0,96,0.00,,,0.00,51.0,meteohub,2013-12-08 21:17:00,
2013-12-08 16:22:00,57.4,56.3,30.17,NNE,32,5.0,10.0,96,0.00,,,0.00,46.0,meteohub,2013-12-08 21:22:00,
2013-12-08 16:27:00,57.4,56.3,30.17,NE,49,2.0,10.0,96,0.00,,,0.00,39.0,meteohub,2013-12-08 21:27:00,
2013-12-08 16:32:00,57.4,56.3,30.17,ENE,76,5.0,10.0,96,0.00,,,0.00,30.0,meteohub,2013-12-08 21:32:00,
2013-12-08 16:37:00,57.4,56.3,30.17,North,10,3.0,10.0,96,0.00,,,0.00,19.0,meteohub,2013-12-08 21:37:00,
2013-12-08 16:42:00,57.4,56.3,30.17,NE,49,2.0,10.0,96,0.00,,,0.00,19.0,meteohub,2013-12-08 21:42:00,
2013-12-08 16:47:00,57.4,56.3,30.17,NE,39,1.0,8.0,96,0.00,,,0.00,19.0,meteohub,2013-12-08 21:47:00,
2013-12-08 16:52:00,57.6,56.5,30.17,NE,55,3.0,7.0,96,0.00,,,0.00,18.0,meteohub,2013-12-08 21:52:00,
2013-12-08 16:57:00,57.4,56.3,30.17,NE,44,4.0,7.0,96,0.00,,,0.00,9.0,meteohub,2013-12-08 21:57:00,
2013-12-08 17:02:00,57.4,56.3,30.17,NNW,342,5.0,7.0,96,0.00,,,0.00,9.0,meteohub,2013-12-08 22:02:00,
2013-12-08 17:07:00,57.4,56.3,30.17,ESE,107,7.0,7.0,96,0.00,,,0.00,5.0,meteohub,2013-12-08 22:07:00,
2013-12-08 17:12:00,57.4,56.3,30.17,ENE,59,0.0,8.0,96,0.00,,,0.00,0.0,meteohub,2013-12-08 22:12:00,
2013-12-08 17:17:00,57.4,56.3,30.18,NE,49,2.0,8.0,96,0.00,,,0.00,0.0,meteohub,2013-12-08 22:17:00,
2013-12-08 17:22:00,57.4,56.3,30.18,NE,34,4.0,8.0,96,0.00,,,0.00,0.0,meteohub,2013-12-08 22:22:00,
2013-12-08 17:27:00,57.4,56.3,30.18,NNE,31,5.0,8.0,96,0.00,,,0.00,0.0,meteohub,2013-12-08 22:27:00,
2013-12-08 17:32:00,57.4,56.3,30.18,ENE,65,4.0,8.0,96,0.00,,,0.00,0.0,meteohub,2013-12-08 22:32:00,
2013-12-08 17:37:00,57.2,56.1,30.18,NE,37,4.0,10.0,96,0.00,,,0.00,0.0,meteohub,2013-12-08 22:37:00,
2013-12-08 17:42:00,57.2,56.3,30.18,NE,44,3.0,10.0,97,0.00,,,0.00,0.0,meteohub,2013-12-08 22:42:00,
2013-12-08 17:47:00,57.0,56.1,30.19,NNE,28,6.0,10.0,97,0.00,,,0.00,0.0,meteohub,2013-12-08 22:47:00,
2013-12-08 17:52:00,57.0,56.1,30.18,NNE,30,1.0,8.0,97,0.00,,,0.00,0.0,meteohub,2013-12-08 22:52:00,
2013-12-08 17:57:00,57.0,56.1,30.19,NNE,25,3.0,8.0,97,0.00,,,0.00,0.0,meteohub,2013-12-08 22:57:00,
2013-12-08 18:02:00,57.0,56.1,30.19,NE,40,4.0,8.0,97,0.00,,,0.00,0.0,meteohub,2013-12-08 23:02:00,
2013-12-08 18:07:00,56.8,55.9,30.19,NE,39,2.0,7.0,97,0.00,,,0.00,0.0,meteohub,2013-12-08 23:07:00,
2013-12-08 18:12:00,56.8,55.9,30.19,NNE,28,4.0,7.0,97,0.00,,,0.00,0.0,meteohub,2013-12-08 23:12:00,
2013-12-08 18:17:00,56.7,55.8,30.19,NNE,17,3.0,10.0,97,0.00,,,0.00,0.0,meteohub,2013-12-08 23:17:00,
2013-12-08 18:22:00,56.7,55.8,30.19,NE,37,5.0,10.0,97,0.00,,,0.00,0.0,meteohub,2013-12-08 23:22:00,
2013-12-08 18:27:00,56.7,55.8,30.19,NE,35,5.0,10.0,97,0.00,,,0.00,0.0,meteohub,2013-12-08 23:27:00,
2013-12-08 18:32:00,56.5,55.6,30.19,NNE,30,2.0,9.0,97,0.00,,,0.00,0.0,meteohub,2013-12-08 23:32:00,
2013-12-08 18:37:00,56.5,55.6,30.19,NNE,30,4.0,11.0,97,0.00,,,0.00,0.0,meteohub,2013-12-08 23:37:00,
2013-12-08 18:41:00,56.5,55.6,30.20,NE,35,3.0,11.0,97,0.00,,,0.00,0.0,meteohub,2013-12-08 23:41:00,
2013-12-08 18:46:00,56.5,55.6,30.20,North,11,0.0,11.0,97,0.00,,,0.00,0.0,meteohub,2013-12-08 23:46:00,
2013-12-08 18:51:00,56.1,55.2,30.20,NE,34,4.0,8.0,97,0.00,,,0.00,0.0,meteohub,2013-12-08 23:51:00,
2013-12-08 18:57:00,55.9,55.0,30.20,NE,38,3.0,8.0,97,0.00,,,0.00,0.0,meteohub,2013-12-08 23:57:00,
2013-12-08 19:02:00,55.9,55.0,30.20,ENE,69,2.0,8.0,97,0.00,,,0.00,0.0,meteohub,2013-12-09 00:02:00,
2013-12-08 19:07:00,55.9,55.0,30.20,NE,53,5.0,8.0,97,0.00,,,0.00,0.0,meteohub,2013-12-09 00:07:00,
2013-12-08 19:12:00,55.8,54.9,30.20,NE,46,5.0,11.0,97,0.00,,,0.00,0.0,meteohub,2013-12-09 00:12:00,
2013-12-08 19:17:00,55.6,54.7,30.20,NNE,15,4.0,11.0,97,0.00,,,0.00,0.0,meteohub,2013-12-09 00:17:00,
2013-12-08 19:22:00,55.6,54.7,30.20,NE,35,7.0,10.0,97,0.00,,,0.00,0.0,meteohub,2013-12-09 00:22:00,
2013-12-08 19:27:00,55.6,54.7,30.20,NE,52,4.0,9.0,97,0.00,,,0.00,0.0,meteohub,2013-12-09 00:27:00,
2013-12-08 19:31:00,55.6,54.7,30.20,NE,56,6.0,9.0,97,0.00,,,0.00,0.0,meteohub,2013-12-09 00:31:00,
2013-12-08 19:36:00,55.4,54.5,30.20,ENE,63,1.0,9.0,97,0.00,,,0.00,0.0,meteohub,2013-12-09 00:36:00,
2013-12-08 19:42:00,55.4,54.5,30.21,NE,51,4.0,9.0,97,0.00,,,0.00,0.0,meteohub,2013-12-09 00:42:00,
2013-12-08 19:47:00,55.4,54.5,30.21,NNE,28,4.0,9.0,97,0.00,,,0.00,0.0,meteohub,2013-12-09 00:47:00,
2013-12-08 19:51:00,55.2,54.3,30.21,NE,44,1.0,9.0,97,0.00,,,0.00,0.0,meteohub,2013-12-09 00:51:00,
2013-12-08 19:56:00,55.2,54.3,30.21,ENE,64,8.0,9.0,97,0.00,,,0.00,0.0,meteohub,2013-12-09 00:56:00,
2013-12-08 20:01:00,55.2,54.3,30.21,NNE,30,2.0,9.0,97,0.00,,,0.00,0.0,meteohub,2013-12-09 01:01:00,
2013-12-08 20:06:00,55.0,54.1,30.21,ENE,61,4.0,8.0,97,0.00,,,0.00,0.0,meteohub,2013-12-09 01:06:00,
2013-12-08 20:11:00,55.0,54.1,30.21,North,0,2.0,8.0,97,0.00,,,0.00,0.0,meteohub,2013-12-09 01:11:00,
2013-12-08 20:16:00,54.9,54.0,30.22,ENE,67,4.0,6.0,97,0.00,,,0.00,0.0,meteohub,2013-12-09 01:16:00,
2013-12-08 20:21:00,54.9,54.0,30.22,ENE,60,5.0,9.0,97,0.00,,,0.00,0.0,meteohub,2013-12-09 01:21:00,
2013-12-08 20:26:00,54.7,54.1,30.22,NE,49,5.0,9.0,98,0.00,,,0.00,0.0,meteohub,2013-12-09 01:26:00,
2013-12-08 20:31:00,54.7,54.1,30.22,NE,46,2.0,9.0,98,0.00,,,0.00,0.0,meteohub,2013-12-09 01:31:00,
2013-12-08 20:36:00,54.7,54.1,30.22,ENE,69,2.0,9.0,98,0.00,,,0.00,0.0,meteohub,2013-12-09 01:36:00,
2013-12-08 20:41:00,54.7,54.1,30.22,NNE,32,4.0,9.0,98,0.00,,,0.00,0.0,meteohub,2013-12-09 01:41:00,
2013-12-08 20:46:00,54.7,53.8,30.22,NNE,28,0.0,9.0,97,0.00,,,0.00,0.0,meteohub,2013-12-09 01:46:00,
2013-12-08 20:51:00,54.7,54.1,30.22,ENE,68,2.0,9.0,98,0.00,,,0.00,0.0,meteohub,2013-12-09 01:51:00,
2013-12-08 20:56:00,54.5,53.6,30.21,NE,42,3.0,7.0,97,0.00,,,0.00,0.0,meteohub,2013-12-09 01:56:00,
2013-12-08 21:02:00,54.5,53.6,30.21,NNE,30,2.0,7.0,97,0.00,,,0.00,0.0,meteohub,2013-12-09 02:02:00,
2013-12-08 21:07:00,54.5,53.6,30.21,ENE,57,4.0,7.0,97,0.00,,,0.00,0.0,meteohub,2013-12-09 02:07:00,
2013-12-08 21:12:00,54.7,53.8,30.21,NE,52,0.0,11.0,97,0.00,,,0.00,0.0,meteohub,2013-12-09 02:12:00,
2013-12-08 21:17:00,54.7,54.1,30.21,NNE,21,2.0,11.0,98,0.00,,,0.00,0.0,meteohub,2013-12-09 02:17:00,
2013-12-08 21:22:00,54.7,54.1,30.21,NE,46,3.0,9.0,98,0.00,,,0.00,0.0,meteohub,2013-12-09 02:22:00,
2013-12-08 21:27:00,54.7,54.1,30.21,NNE,27,2.0,7.0,98,0.00,,,0.00,0.0,meteohub,2013-12-09 02:27:00,
2013-12-08 21:32:00,54.7,54.1,30.21,ENE,71,3.0,7.0,98,0.00,,,0.00,0.0,meteohub,2013-12-09 02:32:00,
2013-12-08 21:37:00,54.9,54.3,30.21,NE,46,4.0,7.0,98,0.00,,,0.00,0.0,meteohub,2013-12-09 02:37:00,
2013-12-08 21:42:00,54.9,54.3,30.21,NNE,22,3.0,7.0,98,0.00,,,0.00,0.0,meteohub,2013-12-09 02:42:00,
2013-12-08 21:47:00,54.9,54.3,30.21,NE,38,6.0,8.0,98,0.00,,,0.00,0.0,meteohub,2013-12-09 02:47:00,
2013-12-08 21:52:00,55.0,54.5,30.21,NE,44,4.0,8.0,98,0.00,,,0.00,0.0,meteohub,2013-12-09 02:52:00,
2013-12-08 21:57:00,55.2,54.7,30.20,ENE,64,3.0,8.0,98,0.00,,,0.00,0.0,meteohub,2013-12-09 02:57:00,
2013-12-08 22:02:00,55.2,54.7,30.21,NNE,32,6.0,8.0,98,0.00,,,0.00,0.0,meteohub,2013-12-09 03:02:00,
2013-12-08 22:07:00,55.4,54.9,30.21,NE,37,2.0,7.0,98,0.00,,,0.00,0.0,meteohub,2013-12-09 03:07:00,
2013-12-08 22:12:00,55.6,55.0,30.21,NNE,30,2.0,8.0,98,0.00,,,0.00,0.0,meteohub,2013-12-09 03:12:00,
2013-12-08 22:17:00,55.6,55.0,30.20,NE,36,4.0,11.0,98,0.00,,,0.00,0.0,meteohub,2013-12-09 03:17:00,
2013-12-08 22:22:00,55.6,55.0,30.21,ESE,114,2.0,11.0,98,0.00,,,0.00,0.0,meteohub,2013-12-09 03:22:00,
2013-12-08 22:27:00,55.6,55.0,30.21,NE,50,3.0,8.0,98,0.00,,,0.00,0.0,meteohub,2013-12-09 03:27:00,
2013-12-08 22:32:00,55.6,55.0,30.20,NNE,32,5.0,10.0,98,0.00,,,0.00,0.0,meteohub,2013-12-09 03:32:00,
2013-12-08 22:37:00,55.6,55.0,30.20,ENE,60,2.0,10.0,98,0.00,,,0.00,0.0,meteohub,2013-12-09 03:37:00,
2013-12-08 22:42:00,55.6,55.0,30.20,North,11,3.0,8.0,98,0.00,,,0.00,0.0,meteohub,2013-12-09 03:42:00,
2013-12-08 22:47:00,55.6,55.0,30.20,NE,49,4.0,8.0,98,0.00,,,0.00,0.0,meteohub,2013-12-09 03:47:00,
2013-12-08 22:52:00,55.6,55.0,30.20,ENE,61,2.0,7.0,98,0.00,,,0.00,0.0,meteohub,2013-12-09 03:52:00,
2013-12-08 22:57:00,55.6,55.0,30.20,NE,45,1.0,7.0,98,0.00,,,0.00,0.0,meteohub,2013-12-09 03:57:00,
2013-12-08 23:01:00,55.8,55.2,30.20,NNE,22,2.0,8.0,98,0.00,,,0.00,0.0,meteohub,2013-12-09 04:01:00,
2013-12-08 23:06:00,55.8,55.2,30.19,NNE,30,0.0,8.0,98,0.00,,,0.00,0.0,meteohub,2013-12-09 04:06:00,
2013-12-08 23:11:00,55.8,55.2,30.19,NNE,31,2.0,8.0,98,0.00,,,0.00,0.0,meteohub,2013-12-09 04:11:00,
2013-12-08 23:16:00,55.9,55.4,30.19,NE,47,1.0,5.0,98,0.01,,,0.01,0.0,meteohub,2013-12-09 04:16:00,
2013-12-08 23:22:00,55.9,55.4,30.19,NNE,28,2.0,7.0,98,0.01,,,0.01,0.0,meteohub,2013-12-09 04:22:00,
2013-12-08 23:27:00,55.9,55.4,30.19,NNE,32,4.0,7.0,98,0.01,,,0.01,0.0,meteohub,2013-12-09 04:27:00,
2013-12-08 23:31:00,55.9,55.4,30.19,NE,51,0.0,7.0,98,0.01,,,0.01,0.0,meteohub,2013-12-09 04:31:00,
2013-12-08 23:36:00,55.9,55.4,30.18,NNE,22,0.0,7.0,98,0.01,,,0.01,0.0,meteohub,2013-12-09 04:36:00,
2013-12-08 23:41:00,55.9,55.4,30.19,NNE,30,2.0,7.0,98,0.01,,,0.01,0.0,meteohub,2013-12-09 04:41:00,
2013-12-08 23:46:00,56.1,55.6,30.18,NNE,33,1.0,6.0,98,0.01,,,0.01,0.0,meteohub,2013-12-09 04:46:00,
2013-12-08 23:51:00,55.9,55.4,30.18,NE,42,2.0,6.0,98,0.01,,,0.01,0.0,meteohub,2013-12-09 04:51:00,
2013-12-08 23:56:00,56.1,55.6,30.18,NNE,32,1.0,6.0,98,0.01,,,0.01,0.0,meteohub,2013-12-09 04:56:00,